Grove City, OH

6:49 AM EST on February 13, 2016 (GMT -0500)
Bolton

Weather History for KTZR - November, 2012

Change the Weather History Date:

Monday, November 12, 2012

  Actual Average Record
Temperature  
Mean Temperature 44 °F -  
Max Temperature 59 °F 50 °F 69 °F (2003)
Min Temperature 29 °F 35 °F 19 °F (1996)
Degree Days  
Heating Degree Days 21    
Moisture  
Dew Point 39 °F    
Average Humidity 76    
Maximum Humidity 95    
Minimum Humidity 46    
Precipitation  
Precipitation 0.09 in - - ()
Sea Level Pressure  
Sea Level Pressure 30.17 in    
Wind  
Wind Speed 11 mph (SSW)    
Max Wind Speed 21 mph    
Max Gust Speed 28 mph    
Visibility 9 miles    
Events Rain    
Averages and records for this station are not official NWS values.
T = Trace of Precipitation, MM = Missing Value Source: NWS Daily Summary

Daily Weather History Graph

Daily Weather History Graph

Search for Another Location

Airport or City:

Trip Planner

Search our weather history database for the weather conditions in past years. The results will help you decide how hot, cold, wet, or windy it might be!

Date:

Astronomy

Nov. 12, 2012 Rise Set
Actual Time 7:14 AM EST 5:18 PM EST
Civil Twilight 6:45 AM EST 5:47 PM EST
Nautical Twilight 6:13 AM EST 6:19 PM EST
Astronomical Twilight 5:41 AM EST 6:51 PM EST
Moon 5:38 AM EST (11/12) 4:22 PM EST (11/12)
Length of Visible Light 11h 01m
Length of Day
10h 03m
Waning Crescent, 2% of the Moon is Illuminated
Nov 12
Waning Crescent
Nov 13
New
Nov 20
First Quarter
Nov 28
Full
Dec 6
Last Quarter

Hourly Weather History & Observations

Time (EST) Temp. Windchill Dew Point Humidity Pressure Visibility Wind Dir Wind Speed Gust Speed Precip Events Conditions
12:15 AM 56.5 °F - 36.0 °F 46% 30.11 in 10.0 mi SSE 9.2 mph - N/A   Clear
12:35 AM 56.3 °F - 36.3 °F 47% 30.12 in 10.0 mi SSE 9.2 mph - N/A   Clear
12:55 AM 56.5 °F - 36.7 °F 48% 30.12 in 10.0 mi SSE 9.2 mph - N/A   Clear
1:55 AM 55.6 °F - 37.4 °F 50% 30.13 in 10.0 mi SSE 9.2 mph - N/A   Clear
2:15 AM 55.4 °F - 37.9 °F 52% 30.13 in 10.0 mi SSE 8.1 mph - N/A   Clear
2:35 AM 55.8 °F - 39.0 °F 53% 30.12 in 10.0 mi SSE 8.1 mph - N/A   Scattered Clouds
2:55 AM 55.9 °F - 40.1 °F 55% 30.11 in 10.0 mi SSE 9.2 mph - N/A   Mostly Cloudy
3:15 AM 56.1 °F - 41.2 °F 57% 30.11 in 10.0 mi SSE 10.4 mph - N/A   Overcast
3:35 AM 56.5 °F - 41.5 °F 57% 30.09 in 10.0 mi SE 10.4 mph - N/A   Scattered Clouds
3:55 AM 56.7 °F - 42.1 °F 58% 30.09 in 10.0 mi SSE 11.5 mph - N/A   Clear
4:15 AM 57.4 °F - 42.8 °F 58% 30.07 in 10.0 mi SSE 15.0 mph 20.7 mph N/A   Clear
4:35 AM 58.1 °F - 43.0 °F 57% 30.06 in 10.0 mi SSE 16.1 mph - N/A   Clear
4:55 AM 58.5 °F - 43.7 °F 58% 30.06 in 10.0 mi SSE 16.1 mph 21.9 mph N/A   Clear
5:15 AM 59.0 °F - 44.4 °F 58% 30.05 in 10.0 mi SSE 16.1 mph 24.2 mph N/A   Clear
5:35 AM 59.2 °F - 44.8 °F 59% 30.05 in 10.0 mi SSE 18.4 mph 23.0 mph N/A   Scattered Clouds
5:55 AM 59.5 °F - 45.5 °F 60% 30.04 in 10.0 mi SSE 18.4 mph 21.9 mph N/A   Scattered Clouds
6:15 AM 59.9 °F - 45.7 °F 59% 30.05 in 10.0 mi SSE 18.4 mph 24.2 mph N/A   Mostly Cloudy
6:35 AM 56.8 °F - 48.0 °F 72% 30.07 in 10.0 mi SSW 10.4 mph - N/A Rain Light Rain
6:55 AM 55.2 °F - 49.5 °F 81% 30.08 in 7.0 mi South 10.4 mph - 0.05 in Rain Light Rain
7:15 AM 54.3 °F - 50.0 °F 85% 30.08 in 7.0 mi South 9.2 mph - 0.04 in Rain Rain
7:55 AM 55.4 °F - 51.8 °F 88% 30.08 in 7.0 mi SSE 13.8 mph 18.4 mph N/A Rain Rain
8:55 AM 55.4 °F - 53.6 °F 94% 30.06 in 7.0 mi SSE 18.4 mph 27.6 mph N/A Rain Rain
9:50 AM 55.4 °F - 53.6 °F 94% 30.04 in 7.0 mi SSE 20.7 mph 26.5 mph N/A Rain Light Rain
10:50 AM 57.2 °F - 55.4 °F 94% 30.03 in 7.0 mi South 17.3 mph 27.6 mph N/A Rain Rain
11:47 AM 51.8 °F - 50.0 °F 94% 30.06 in 5.0 mi West 8.1 mph 17.3 mph N/A Rain Light Rain
12:47 PM 46.4 °F 40.7 °F 44.6 °F 93% 30.08 in 7.0 mi West 12.7 mph - N/A Rain Light Rain
1:50 PM 44.6 °F 38.8 °F 41.0 °F 87% 30.11 in 7.0 mi West 11.5 mph 20.7 mph N/A Rain Light Rain
2:47 PM 42.8 °F 37.5 °F 39.2 °F 87% 30.13 in 7.0 mi WSW 9.2 mph 16.1 mph N/A Rain Light Rain
3:50 PM 39.2 °F 32.0 °F 37.4 °F 93% 30.16 in 10.0 mi West 11.5 mph 18.4 mph N/A   Overcast
4:50 PM 37.4 °F 30.8 °F 33.8 °F 87% 30.22 in 10.0 mi West 9.2 mph - N/A   Overcast
5:50 PM 37.4 °F 32.1 °F 33.8 °F 87% 30.24 in 10.0 mi WSW 6.9 mph - N/A   Mostly Cloudy
6:50 PM 35.6 °F 28.6 °F 30.2 °F 81% 30.27 in 10.0 mi WSW 9.2 mph - N/A   Mostly Cloudy
8:15 PM 33.3 °F 26.4 °F 31.1 °F 92% 30.30 in 10.0 mi SW 8.1 mph - N/A   Clear
8:35 PM 32.7 °F 25.7 °F 30.7 °F 92% 30.31 in 10.0 mi SSW 8.1 mph - N/A   Clear
8:55 PM 32.2 °F 25.0 °F 30.9 °F 95% 30.33 in 10.0 mi SSW 8.1 mph - N/A   Clear
9:15 PM 32.0 °F 25.6 °F 30.2 °F 93% 30.34 in 10.0 mi SSW 6.9 mph - N/A   Clear
9:35 PM 31.5 °F 24.9 °F 29.7 °F 93% 30.34 in 10.0 mi SW 6.9 mph - N/A   Clear
9:55 PM 32.0 °F 25.6 °F 29.8 °F 92% 30.36 in 10.0 mi SW 6.9 mph - N/A   Clear
10:15 PM 32.0 °F 25.6 °F 29.1 °F 89% 30.36 in 10.0 mi WSW 6.9 mph - N/A   Clear
10:35 PM 31.6 °F 27.0 °F 28.4 °F 88% 30.37 in 10.0 mi SW 4.6 mph - N/A   Clear
10:55 PM 30.0 °F 24.1 °F 27.5 °F 90% 30.38 in 10.0 mi SSW 5.8 mph - N/A   Clear
11:15 PM 29.3 °F 23.2 °F 27.1 °F 92% 30.38 in 10.0 mi SW 5.8 mph - N/A   Clear
11:35 PM 29.3 °F 23.2 °F 26.4 °F 89% 30.39 in 10.0 mi SW 5.8 mph - N/A   Clear
11:55 PM 29.1 °F 23.0 °F 25.7 °F 87% 30.39 in 10.0 mi SW 5.8 mph - N/A   Clear